{"data":{"norad_id":65296,"intl_designator":"2025-184Z","name":"STARLINK-34872","alt_names":[],"object_type":"PAYLOAD","status":"ACTIVE","operator":null,"country":"US","launch_date":"2025-08-22","launch_site_code":"AFWTR","launch_vehicle":null,"mission":null,"orbit_class":"UNKNOWN","rcs_meters":null,"size_class":null,"mass_kg":null,"dimensions":null,"purposes":["comms"],"wikipedia_slug":null,"has_3d_model":false,"image_url":null,"decayed_at":null,"tle_current":{"epoch":"2026-05-25T02:16:11.309376Z","epoch_age_seconds":76987,"freshness":"FRESH","line1":"1 65296U 25184Z   26145.09457534 -.00009501  00000+0 -65566-3 0  9990","line2":"2 65296  97.4514 197.5457 0000856 224.4637 135.6521 15.05631968 42794","mean_motion":15.05631968,"eccentricity":8.56e-5,"inclination_deg":97.4514,"raan_deg":197.5457,"arg_perigee_deg":224.4637,"mean_anomaly_deg":135.6521,"bstar":-0.00065566,"rev_number":4279,"period_min":95.640902332382,"perigee_km":548.97345454673,"apogee_km":550.1594773801,"semimajor_km":6927.7034659634,"source":"CELESTRAK","updated_at":"2026-05-25T13:38:20.757061Z"}}}